Showing default

SJ-17, 41838

Orbit data source: Space-Track

SJ-17, 41838 is a Chinese payload satellite in GEO that was launched on Thu, 03 Nov 2016 UTC via a CHANG ZHENG 5/YZ-2 launch vehicle from the Wenchang Satellite Launch Center (WSC). Payloads include a variety of satellites, spacecraft, and rockets equipped with specific instruments for various scientific and technological missions. These include communications satellites like Starlink; space stations such as the ISS; scientific satellites like the Hubble; Earth observation satellites from companies like Planet Labs, Umbra, and HawkEye 360; GPS; miniature CubeSats for education and research; and military/defense satellites.

Not visible in the next 10 days
SJ-17 details
Identifier
41838, 2016-065A
Orbit
GEO
Last TLE update7 hours ago
Origin
Flag of CNCHISAE/CAST (CN / PRC)
ManufacturerCAST
MissionOperational Civil Technology
Bus & MotorDFH-4?, Unknown motor
Mass~3,000 kg wet, ~2,500 kg dry
Launch date (UTC)
2016-11-03 (8 years ago)
Launch vehicle
CHANG ZHENG 5/YZ-2
Launch site
Wenchang Satellite Launch Center (WSC)
Object type
Payload
Rocket body
Debris
Shape & HBRBox + 2 Pan, 10 m
Radar Cross Section14.304 m², Large (>1 m²)

Expand to show TLE details & history

TLE from 7 hours ago
0 SJ-17
1 41838U 16065A   24346.58578937  .00000078  00000-0  00000+0 0  9997
2 41838   4.3413  79.2935 0003930 212.0687 182.3322  1.00273898 29692
Epoch: 2024-12-11T14:03Z
Definitive object data (Epoch: 2024-12-11T14:03:32.201Z)
Latitude2.46868°
Longitude-178.05785°
Altitude35,801.791 km
Speed3.074 km/s
True Right ascension07h 34m 25s
True Declination2° 27' 58"
Sunlit
Object was in daylight at TLE epoch
Visualization TLE readout
Latitude2.61199°
Longitude-69.60488°
Altitude35,779.259 km
Speed3.075 km/s
Apparent Right ascension14h 21m 58s
Apparent Declination-3° 00' 32"
Sunlit
Object is in daylight
Visualization observer readout
Local Sidereal Time19:39:30
Azimuth260.838° W
Elevation6.167°
Doppler factor1
Orbital elements
Apogee altitude35,803.635 km
Perigee altitude35,770.493 km
Semi-major axis42,165.201 km
Eccentricity0.000393
Inclination4.3413°
RAAN79.2935°
Arg. of periapsis212.0687°
True anomaly182.33037°
Mean anomaly182.3322°
Eccentric anomaly182.33128°
Mean motion0.25068 °/min
BSTARUnknown
Orbital period1436.12 mins
Loading historical data...
41838 neighbors
Authenticating...
Loading maneuver chart data...
Loading historical data...
Loading historical data...
Loading historical data...
Loading historical data...
Loading historical data...
Loading historical data...
Loading historical data...
Other satellites on launch #65 in the year 2016 (2016-11-03 UTC)

SJ-17 Visibility forecast

Observer location: undefined°, undefined

SJ-17 is not visible in the next 10 days
Span
Click to sort rows by Start time (UTC) header in descending order
Start Az.
Max El. time (UTC)
Max El. Az.
Max El.
End time (UTC)
End Az.
|